,,PA_Meas_PMT16A,,PR_Meas_QMR101_102,,RH_Meas_QMH101,,SR_Meas_QMS101,,TA_Meas_QMH101,,GenWind,,GenWind,
time,status,PA,status,PR,status,RH,status,SR,status,TA,status,DirAvg,status,SpdAvg,
2011-12-28, 00:00:04,VALID,919.456,VALID,0,VALID,90.0707,VALID,0,VALID,19.5273,VALID,116,VALID,0,
2011-12-28, 00:01:04,VALID,919.441,VALID,0,VALID,90.246,VALID,0,VALID,19.4883,VALID,116,VALID,0,
2011-12-28, 00:02:04,VALID,919.432,VALID,0,VALID,90.4061,VALID,0,VALID,19.4688,VALID,116,VALID,0,
2011-12-28, 00:03:04,VALID,919.437,VALID,0,VALID,90.5433,VALID,0,VALID,19.4493,VALID,116,VALID,0,
2011-12-28, 00:04:04,VALID,919.372,VALID,0,VALID,90.6882,VALID,0,VALID,19.4298,VALID,116,VALID,0.00585938,
2011-12-28, 00:05:04,VALID,919.368,VALID,0,VALID,90.7491,VALID,0,VALID,19.3908,VALID,116,VALID,0.536719,
2011-12-28, 00:06:04,VALID,919.366,VALID,0,VALID,90.9016,VALID,0,VALID,19.2918,VALID,116,VALID,0.7125,
2011-12-28, 00:07:04,VALID,919.341,VALID,0,VALID,91.1303,VALID,0,VALID,19.2348,VALID,116,VALID,0.782812,
2011-12-28, 00:08:04,VALID,919.34,VALID,0,VALID,91.4657,VALID,0,VALID,19.1763,VALID,116,VALID,0.902734,
2011-12-28, 00:09:04,VALID,919.339,VALID,0,VALID,91.824,VALID,0,VALID,19.1178,VALID,116,VALID,0.830078,
2011-12-28, 00:10:04,VALID,919.348,VALID,0,VALID,92.1137,VALID,0,VALID,19.0788,VALID,116,VALID,0.730469,
2011-12-28, 00:11:04,VALID,919.348,VALID,0,VALID,92.3424,VALID,0,VALID,19.0579,VALID,116,VALID,0.400391,
2011-12-28, 00:12:04,VALID,919.374,VALID,0,VALID,92.4263,VALID,0,VALID,19.0593,VALID,116,VALID,0.36875,
2011-12-28, 00:13:04,VALID,919.399,VALID,0,VALID,92.4568,VALID,0,VALID,19.0579,VALID,116,VALID,0,
2011-12-28, 00:14:04,VALID,919.389,VALID,0,VALID,92.472,VALID,0,VALID,19.0983,VALID,116,VALID,0.0464844,
2011-12-28, 00:15:04,VALID,919.416,VALID,0,VALID,92.3119,VALID,0,VALID,19.1178,VALID,116,VALID,0,
2011-12-28, 00:16:04,VALID,919.376,VALID,0,VALID,92.0604,VALID,0,VALID,19.1568,VALID,116,VALID,0.439844,
2011-12-28, 00:17:04,VALID,919.377,VALID,0,VALID,91.7859,VALID,0,VALID,19.1958,VALID,116,VALID,0.839844,
2011-12-28, 00:18:04,VALID,919.372,VALID,0,VALID,91.7326,VALID,0,VALID,19.2348,VALID,116,VALID,1.00312,
2011-12-28, 00:19:04,VALID,919.376,VALID,0,VALID,91.6182,VALID,0,VALID,19.2933,VALID,116,VALID,0.877734,
2011-12-28, 00:20:04,VALID,919.359,VALID,0,VALID,91.3209,VALID,0,VALID,19.3518,VALID,116,VALID,0.59375,
2011-12-28, 00:21:04,VALID,919.372,VALID,0,VALID,90.9855,VALID,0,VALID,19.3908,VALID,116,VALID,0.760938,
2011-12-28, 00:22:04,VALID,919.337,VALID,0,VALID,90.833,VALID,0,VALID,19.4103,VALID,116,VALID,0.573438,
2011-12-28, 00:23:04,VALID,919.336,VALID,0,VALID,90.7644,VALID,0,VALID,19.4298,VALID,116,VALID,0.496094,
2011-12-28, 00:24:04,VALID,919.35,VALID,0,VALID,90.9169,VALID,0,VALID,19.4298,VALID,116,VALID,0.510938,
2011-12-28, 00:25:04,VALID,919.335,VALID,0,VALID,91.0693,VALID,0,VALID,19.3893,VALID,116,VALID,0.480859,
2011-12-28, 00:26:04,VALID,919.349,VALID,0,VALID,91.0922,VALID,0,VALID,19.3908,VALID,116,VALID,0.989453,
2011-12-28, 00:27:04,VALID,919.303,VALID,0,VALID,90.9855,VALID,0,VALID,19.4103,VALID,116,VALID,1.3082,
2011-12-28, 00:28:04,VALID,919.307,VALID,0,VALID,91.0541,VALID,0,VALID,19.4298,VALID,116,VALID,0.737109,
2011-12-28, 00:29:04,VALID,919.292,VALID,0,VALID,91.6716,VALID,0,VALID,19.3713,VALID,129,VALID,1.27344,
2011-12-28, 00:30:04,VALID,919.267,VALID,0,VALID,92.2052,VALID,0,VALID,19.2933,VALID,129,VALID,1.00117,
2011-12-28, 00:31:04,VALID,919.247,VALID,0,VALID,92.7541,VALID,0,VALID,19.2348,VALID,121,VALID,1.36523,
2011-12-28, 00:32:04,VALID,919.247,VALID,0,VALID,93.2039,VALID,0,VALID,19.1568,VALID,121,VALID,1.05469,
2011-12-28, 00:33:04,VALID,919.221,VALID,0,VALID,93.5851,VALID,0,VALID,19.0788,VALID,121,VALID,1.06719,
2011-12-28, 00:34:04,VALID,919.224,VALID,0,VALID,93.9891,VALID,0,VALID,19.0398,VALID,121,VALID,1.20195,
2011-12-28, 00:35:04,VALID,919.225,VALID,0,VALID,94.355,VALID,0,VALID,19.0008,VALID,121,VALID,1.27031,
2011-12-28, 00:36:04,VALID,919.219,VALID,0,VALID,94.6447,VALID,0,VALID,18.9814,VALID,121,VALID,1.32305,
2011-12-28, 00:37:04,VALID,919.228,VALID,0,VALID,94.9344,VALID,0,VALID,18.9604,VALID,127,VALID,1.61367,
2011-12-28, 00:38:04,VALID,919.206,VALID,0,VALID,95.1326,VALID,0,VALID,18.9814,VALID,127,VALID,0.885156,
2011-12-28, 00:39:04,VALID,919.205,VALID,0,VALID,95.2927,VALID,0,VALID,18.9619,VALID,127,VALID,0.959766,
2011-12-28, 00:40:04,VALID,919.162,VALID,0,VALID,95.3766,VALID,0,VALID,18.9814,VALID,127,VALID,0.860937,
2011-12-28, 00:41:04,VALID,919.153,VALID,0,VALID,95.4452,VALID,0,VALID,18.9814,VALID,132,VALID,1.05508,
2011-12-28, 00:42:04,VALID,919.188,VALID,0,VALID,95.4985,VALID,0,VALID,19.0203,VALID,147,VALID,1.10938,
2011-12-28, 00:43:04,VALID,919.197,VALID,0,VALID,95.4833,VALID,0,VALID,19.0203,VALID,134,VALID,1.71094,
2011-12-28, 00:44:04,VALID,919.212,VALID,0,VALID,95.4833,VALID,0,VALID,19.0398,VALID,123,VALID,0.941016,
2011-12-28, 00:45:04,VALID,919.201,VALID,0,VALID,95.4604,VALID,0,VALID,19.0398,VALID,129,VALID,0.508984,
2011-12-28, 00:46:04,VALID,919.186,VALID,0,VALID,95.468,VALID,0,VALID,19.0398,VALID,152,VALID,0.608984,
2011-12-28, 00:47:04,VALID,919.197,VALID,0,VALID,95.4375,VALID,0,VALID,19.0398,VALID,152,VALID,0.935547,
2011-12-28, 00:48:04,VALID,919.205,VALID,0,VALID,95.3842,VALID,0,VALID,19.0398,VALID,151,VALID,0.760547,
2011-12-28, 00:49:04,VALID,919.181,VALID,0,VALID,95.3384,VALID,0,VALID,19.0398,VALID,143,VALID,0.823828,
2011-12-28, 00:50:04,VALID,919.167,VALID,0,VALID,95.2241,VALID,0,VALID,19.0788,VALID,141,VALID,0.782031,
2011-12-28, 00:51:04,VALID,919.13,VALID,0,VALID,95.0411,VALID,0,VALID,19.0983,VALID,141,VALID,0.656641,
2011-12-28, 00:52:04,VALID,919.101,VALID,0,VALID,94.8277,VALID,0,VALID,19.1373,VALID,136,VALID,0.670703,
2011-12-28, 00:53:04,VALID,919.109,VALID,0,VALID,94.4313,VALID,0,VALID,19.1763,VALID,144,VALID,1.15234,
2011-12-28, 00:54:04,VALID,919.093,VALID,0,VALID,93.89,VALID,0,VALID,19.2543,VALID,145,VALID,1.04453,
2011-12-28, 00:55:04,VALID,919.075,VALID,0,VALID,93.3487,VALID,0,VALID,19.2933,VALID,144,VALID,0.585156,
2011-12-28, 00:56:04,VALID,919.074,VALID,0,VALID,92.8303,VALID,0,VALID,19.3728,VALID,144,VALID,1.20078,
2011-12-28, 00:57:04,VALID,919.051,VALID,0,VALID,92.4034,VALID,0,VALID,19.3893,VALID,144,VALID,1.04141,
2011-12-28, 00:58:04,VALID,919.021,VALID,0,VALID,92.129,VALID,0,VALID,19.4493,VALID,144,VALID,0.940234,
2011-12-28, 00:59:04,VALID,919.044,VALID,0,VALID,91.9003,VALID,0,VALID,19.4688,VALID,142,VALID,1.40508,
2011-12-28, 01:00:04,VALID,919.036,VALID,0,VALID,91.7859,VALID,0,VALID,19.4883,VALID,134,VALID,1.10156,
2011-12-28, 01:01:04,VALID,919.018,VALID,0,VALID,91.6716,VALID,0,VALID,19.5078,VALID,136,VALID,1.43984,
2011-12-28, 01:02:04,VALID,918.969,VALID,0,VALID,91.4886,VALID,0,VALID,19.5468,VALID,134,VALID,1.8332,
2011-12-28, 01:03:04,VALID,919.007,VALID,0,VALID,91.3971,VALID,0,VALID,19.5453,VALID,138,VALID,1.78672,
2011-12-28, 01:04:04,VALID,918.98,VALID,0,VALID,91.3514,VALID,0,VALID,19.5468,VALID,127,VALID,2.03359,
2011-12-28, 01:05:04,VALID,918.927,VALID,0,VALID,91.5267,VALID,0,VALID,19.5468,VALID,129,VALID,1.2043,
2011-12-28, 01:06:04,VALID,918.925,VALID,0,VALID,91.6945,VALID,0,VALID,19.5273,VALID,124,VALID,1.67305,
2011-12-28, 01:07:04,VALID,918.894,VALID,0,VALID,92.0527,VALID,0,VALID,19.4688,VALID,129,VALID,2.06758,
2011-12-28, 01:08:04,VALID,918.92,VALID,0,VALID,92.2891,VALID,0,VALID,19.4493,VALID,129,VALID,1.12422,
2011-12-28, 01:09:04,VALID,918.901,VALID,0,VALID,92.4949,VALID,0,VALID,19.4103,VALID,127,VALID,1.43945,
2011-12-28, 01:10:04,VALID,918.902,VALID,0,VALID,92.7084,VALID,0,VALID,19.3713,VALID,135,VALID,1.33125,
2011-12-28, 01:11:04,VALID,918.911,VALID,0,VALID,92.9447,VALID,0,VALID,19.3323,VALID,116,VALID,1.39727,
2011-12-28, 01:12:04,VALID,918.907,VALID,0,VALID,93.1276,VALID,0,VALID,19.3128,VALID,134,VALID,1.44102,
2011-12-28, 01:13:04,VALID,918.859,VALID,0,VALID,93.3182,VALID,0,VALID,19.3128,VALID,143,VALID,1.55039,
2011-12-28, 01:14:04,VALID,918.839,VALID,0,VALID,93.425,VALID,0,VALID,19.3128,VALID,140,VALID,1.54336,
2011-12-28, 01:15:04,VALID,918.793,VALID,0,VALID,93.4783,VALID,0,VALID,19.3323,VALID,141,VALID,1.27422,
2011-12-28, 01:16:04,VALID,918.747,VALID,0,VALID,93.5317,VALID,0,VALID,19.3323,VALID,139,VALID,1.50039,
2011-12-28, 01:17:04,VALID,918.78,VALID,0,VALID,93.5317,VALID,0,VALID,19.3518,VALID,156,VALID,1.41445,
2011-12-28, 01:18:04,VALID,918.745,VALID,0,VALID,93.4936,VALID,0,VALID,19.3518,VALID,149,VALID,1.53398,
2011-12-28, 01:19:04,VALID,918.743,VALID,0,VALID,93.4783,VALID,0,VALID,19.3713,VALID,159,VALID,0.778125,
2011-12-28, 01:20:04,VALID,918.745,VALID,0,VALID,93.4097,VALID,0,VALID,19.3908,VALID,141,VALID,1.02461,
2011-12-28, 01:21:04,VALID,918.725,VALID,0,VALID,93.4402,VALID,0,VALID,19.3923,VALID,148,VALID,1.11484,
2011-12-28, 01:22:04,VALID,918.692,VALID,0,VALID,93.4783,VALID,0,VALID,19.3698,VALID,156,VALID,1.41992,
2011-12-28, 01:23:04,VALID,918.701,VALID,0,VALID,93.5012,VALID,0,VALID,19.3908,VALID,150,VALID,1.41523,
2011-12-28, 01:24:04,VALID,918.657,VALID,0,VALID,93.4707,VALID,0,VALID,19.3503,VALID,142,VALID,1.03789,
2011-12-28, 01:25:04,VALID,918.627,VALID,0,VALID,93.4402,VALID,0,VALID,19.3503,VALID,152,VALID,1.34375,
2011-12-28, 01:26:04,VALID,918.621,VALID,0,VALID,93.4097,VALID,0,VALID,19.3713,VALID,149,VALID,1.03203,
2011-12-28, 01:27:04,VALID,918.593,VALID,0,VALID,93.3411,VALID,0,VALID,19.3518,VALID,149,VALID,1.06328,
2011-12-28, 01:28:04,VALID,918.595,VALID,0,VALID,93.242,VALID,0,VALID,19.3713,VALID,159,VALID,0.990234,
2011-12-28, 01:29:04,VALID,918.604,VALID,0,VALID,93.0285,VALID,0,VALID,19.3698,VALID,145,VALID,1.20234,
2011-12-28, 01:30:04,VALID,918.581,VALID,0,VALID,92.7922,VALID,0,VALID,19.4103,VALID,148,VALID,0.862109,
2011-12-28, 01:31:04,VALID,918.568,VALID,0,VALID,92.6474,VALID,0,VALID,19.3893,VALID,153,VALID,1.14102,
2011-12-28, 01:32:04,VALID,918.569,VALID,0,VALID,92.6321,VALID,0,VALID,19.4103,VALID,136,VALID,1.19219,
2011-12-28, 01:33:04,VALID,918.576,VALID,0,VALID,92.6016,VALID,0,VALID,19.4103,VALID,133,VALID,0.978516,
2011-12-28, 01:34:04,VALID,918.548,VALID,0,VALID,92.5254,VALID,0,VALID,19.3908,VALID,139,VALID,1.40195,
2011-12-28, 01:35:04,VALID,918.549,VALID,0,VALID,92.5483,VALID,0,VALID,19.3698,VALID,140,VALID,1.35508,
2011-12-28, 01:36:04,VALID,918.526,VALID,0,VALID,92.6397,VALID,0,VALID,19.3503,VALID,153,VALID,0.997266,
2011-12-28, 01:37:04,VALID,918.495,VALID,0,VALID,92.5635,VALID,0,VALID,19.3533,VALID,143,VALID,1.53828,
2011-12-28, 01:38:04,VALID,918.504,VALID,0,VALID,92.5559,VALID,0,VALID,19.3323,VALID,147,VALID,0.966797,
2011-12-28, 01:39:04,VALID,918.51,VALID,0,VALID,92.4873,VALID,0,VALID,19.3547,VALID,158,VALID,1.03086,
2011-12-28, 01:40:04,VALID,918.503,VALID,0,VALID,92.1137,VALID,0,VALID,19.3533,VALID,147,VALID,1.4332,
2011-12-28, 01:41:04,VALID,918.496,VALID,0,VALID,91.603,VALID,0,VALID,19.4118,VALID,151,VALID,0.946484,
2011-12-28, 01:42:04,VALID,918.516,VALID,0,VALID,91.3895,VALID,0,VALID,19.4103,VALID,162,VALID,1.27969,
2011-12-28, 01:43:04,VALID,918.546,VALID,0,VALID,91.3361,VALID,0,VALID,19.4103,VALID,157,VALID,0.696094,
2011-12-28, 01:44:04,VALID,918.563,VALID,0,VALID,91.3285,VALID,0,VALID,19.4313,VALID,157,VALID,0.408594,
2011-12-28, 01:45:04,VALID,918.565,VALID,0,VALID,91.3743,VALID,0,VALID,19.4508,VALID,157,VALID,0.49375,
2011-12-28, 01:46:04,VALID,918.576,VALID,0,VALID,91.3514,VALID,0,VALID,19.3713,VALID,148,VALID,0.841797,
2011-12-28, 01:47:04,VALID,918.559,VALID,0,VALID,91.5267,VALID,0,VALID,19.3533,VALID,148,VALID,1.05352,
2011-12-28, 01:48:04,VALID,918.577,VALID,0,VALID,91.6335,VALID,0,VALID,19.2948,VALID,121,VALID,1.34609,
2011-12-28, 01:49:04,VALID,918.565,VALID,0,VALID,91.9079,VALID,0,VALID,19.2348,VALID,121,VALID,0.942578,
2011-12-28, 01:50:04,VALID,918.579,VALID,0,VALID,92.1366,VALID,0,VALID,19.1958,VALID,121,VALID,0.5375,
2011-12-28, 01:51:04,VALID,918.576,VALID,0,VALID,92.007,VALID,0,VALID,19.1778,VALID,121,VALID,0.557813,
2011-12-28, 01:52:04,VALID,918.614,VALID,0,VALID,91.7783,VALID,0,VALID,19.1958,VALID,121,VALID,0.820313,
2011-12-28, 01:53:04,VALID,918.605,VALID,0,VALID,91.4886,VALID,0,VALID,19.2153,VALID,121,VALID,0.815625,
2011-12-28, 01:54:04,VALID,918.616,VALID,0,VALID,91.359,VALID,0,VALID,19.2348,VALID,121,VALID,0.849609,
2011-12-28, 01:55:04,VALID,918.611,VALID,0,VALID,91.3971,VALID,0,VALID,19.2738,VALID,121,VALID,0.678906,
2011-12-28, 01:56:04,VALID,918.596,VALID,0,VALID,91.2523,VALID,0,VALID,19.2543,VALID,121,VALID,0.95625,
2011-12-28, 01:57:04,VALID,918.603,VALID,0,VALID,90.8406,VALID,0,VALID,19.2528,VALID,122,VALID,1.05625,
2011-12-28, 01:58:04,VALID,918.6,VALID,0,VALID,90.1164,VALID,0,VALID,19.3908,VALID,121,VALID,0.950781,
2011-12-28, 01:59:04,VALID,918.617,VALID,0,VALID,89.6819,VALID,0,VALID,19.4883,VALID,121,VALID,1.14688,
2011-12-28, 02:00:04,VALID,918.618,VALID,0,VALID,89.537,VALID,0,VALID,19.5273,VALID,124,VALID,0.862109,
2011-12-28, 02:01:04,VALID,918.613,VALID,0,VALID,89.6666,VALID,0.107441,VALID,19.5063,VALID,127,VALID,0.714453,
2011-12-28, 02:02:04,VALID,918.62,VALID,0,VALID,89.9106,VALID,0.107441,VALID,19.4883,VALID,127,VALID,0.488672,
2011-12-28, 02:03:04,VALID,918.632,VALID,0,VALID,90.1774,VALID,0.107441,VALID,19.4478,VALID,144,VALID,0.779297,
2011-12-28, 02:04:04,VALID,918.646,VALID,0,VALID,90.3908,VALID,0,VALID,19.4688,VALID,144,VALID,0.034375,
2011-12-28, 02:05:04,VALID,918.623,VALID,0,VALID,90.6272,VALID,0,VALID,19.4493,VALID,144,VALID,0,
2011-12-28, 02:06:04,VALID,918.64,VALID,0,VALID,90.772,VALID,0,VALID,19.4493,VALID,144,VALID,0,
2011-12-28, 02:07:04,VALID,918.639,VALID,0,VALID,90.8864,VALID,0,VALID,19.4493,VALID,144,VALID,0.00429688,
2011-12-28, 02:08:04,VALID,918.677,VALID,0,VALID,90.9016,VALID,0,VALID,19.4088,VALID,144,VALID,0.139453,
2011-12-28, 02:09:04,VALID,918.669,VALID,0,VALID,91.1456,VALID,0,VALID,19.4298,VALID,144,VALID,0.532812,
2011-12-28, 02:10:04,VALID,918.663,VALID,0,VALID,91.0465,VALID,0,VALID,19.4103,VALID,144,VALID,0.777344,
2011-12-28, 02:11:04,VALID,918.667,VALID,0,VALID,91.0541,VALID,0,VALID,19.3323,VALID,144,VALID,0.845703,
2011-12-28, 02:12:04,VALID,918.655,VALID,0,VALID,91.298,VALID,0,VALID,19.2738,VALID,141,VALID,0.812109,
2011-12-28, 02:13:04,VALID,918.64,VALID,0,VALID,91.4581,VALID,0,VALID,19.2348,VALID,120,VALID,0.717578,
2011-12-28, 02:14:04,VALID,918.642,VALID,0,VALID,91.4352,VALID,0,VALID,19.2139,VALID,120,VALID,0.936719,
2011-12-28, 02:15:04,VALID,918.617,VALID,0,VALID,91.3361,VALID,0,VALID,19.2528,VALID,128,VALID,0.952734,
2011-12-28, 02:16:04,VALID,918.615,VALID,0,VALID,91.3209,VALID,0,VALID,19.2738,VALID,131,VALID,0.829297,
2011-12-28, 02:17:04,VALID,918.604,VALID,0,VALID,91.3819,VALID,0,VALID,19.2723,VALID,131,VALID,0.430859,
2011-12-28, 02:18:04,VALID,918.633,VALID,0,VALID,91.5115,VALID,0,VALID,19.2738,VALID,131,VALID,0.767187,
2011-12-28, 02:19:04,VALID,918.628,VALID,0,VALID,91.5344,VALID,0,VALID,19.2738,VALID,131,VALID,0.509766,
2011-12-28, 02:20:04,VALID,918.638,VALID,0,VALID,91.4352,VALID,0,VALID,19.2933,VALID,131,VALID,0.268359,
2011-12-28, 02:21:04,VALID,918.592,VALID,0,VALID,91.359,VALID,0,VALID,19.2933,VALID,131,VALID,0.727344,
2011-12-28, 02:22:04,VALID,918.596,VALID,0,VALID,91.359,VALID,0,VALID,19.2933,VALID,131,VALID,0.863281,
2011-12-28, 02:23:04,VALID,918.57,VALID,0,VALID,91.298,VALID,0,VALID,19.2918,VALID,131,VALID,1.13906,
2011-12-28, 02:24:04,VALID,918.558,VALID,0,VALID,91.2142,VALID,0,VALID,19.3323,VALID,131,VALID,0.666797,
2011-12-28, 02:25:04,VALID,918.571,VALID,0,VALID,91.3209,VALID,0,VALID,19.3323,VALID,131,VALID,0.210938,
2011-12-28, 02:26:04,VALID,918.575,VALID,0,VALID,91.4657,VALID,0,VALID,19.2918,VALID,131,VALID,0.053125,
2011-12-28, 02:27:04,VALID,918.59,VALID,0,VALID,91.5496,VALID,0,VALID,19.2528,VALID,131,VALID,0.476563,
2011-12-28, 02:28:04,VALID,918.581,VALID,0,VALID,91.6792,VALID,0,VALID,19.2348,VALID,131,VALID,0.464453,
2011-12-28, 02:29:04,VALID,918.59,VALID,0,VALID,91.7554,VALID,0,VALID,19.1944,VALID,131,VALID,0.311719,
2011-12-28, 02:30:04,VALID,918.586,VALID,0,VALID,91.7935,VALID,0,VALID,19.1944,VALID,131,VALID,0.141016,
2011-12-28, 02:31:04,VALID,918.589,VALID,0,VALID,91.7326,VALID,0,VALID,19.2558,VALID,131,VALID,0.343359,
2011-12-28, 02:32:04,VALID,918.601,VALID,0,VALID,91.7783,VALID,0,VALID,19.2738,VALID,131,VALID,0,
2011-12-28, 02:33:04,VALID,918.598,VALID,0,VALID,91.6716,VALID,0,VALID,19.2738,VALID,131,VALID,0.565234,
2011-12-28, 02:34:04,VALID,918.57,VALID,0,VALID,91.8317,VALID,0,VALID,19.2543,VALID,131,VALID,0.608203,
2011-12-28, 02:35:04,VALID,918.57,VALID,0,VALID,91.8698,VALID,0,VALID,19.1944,VALID,131,VALID,0.610156,
2011-12-28, 02:36:04,VALID,918.541,VALID,0,VALID,91.9689,VALID,0,VALID,19.1958,VALID,131,VALID,0.603125,
2011-12-28, 02:37:04,VALID,918.513,VALID,0,VALID,92.1214,VALID,0,VALID,19.1568,VALID,131,VALID,0.90625,
2011-12-28, 02:38:04,VALID,918.506,VALID,0,VALID,92.4034,VALID,0,VALID,19.1178,VALID,131,VALID,0.853516,
2011-12-28, 02:39:04,VALID,918.454,VALID,0,VALID,92.4797,VALID,0,VALID,19.1568,VALID,131,VALID,0.761719,
2011-12-28, 02:40:04,VALID,918.48,VALID,0,VALID,92.5635,VALID,0.107441,VALID,19.1568,VALID,131,VALID,0.779297,
2011-12-28, 02:41:04,VALID,918.437,VALID,0,VALID,92.5788,VALID,0,VALID,19.1749,VALID,131,VALID,0.823438,
2011-12-28, 02:42:04,VALID,918.452,VALID,0,VALID,92.5864,VALID,0,VALID,19.1763,VALID,131,VALID,0.928516,
2011-12-28, 02:43:04,VALID,918.422,VALID,0,VALID,92.5788,VALID,0,VALID,19.1554,VALID,131,VALID,0.883203,
2011-12-28, 02:44:04,VALID,918.425,VALID,0,VALID,92.7617,VALID,0,VALID,19.1973,VALID,131,VALID,1.19453,
2011-12-28, 02:45:04,VALID,918.419,VALID,0,VALID,92.7084,VALID,0,VALID,19.2348,VALID,131,VALID,1.28008,
2011-12-28, 02:46:04,VALID,918.381,VALID,0,VALID,92.5406,VALID,0,VALID,19.2348,VALID,131,VALID,0.601563,
2011-12-28, 02:47:04,VALID,918.38,VALID,0,VALID,92.5025,VALID,0,VALID,19.1944,VALID,131,VALID,0.626953,
2011-12-28, 02:48:04,VALID,918.334,VALID,0,VALID,92.655,VALID,0,VALID,19.1763,VALID,131,VALID,1.15586,
2011-12-28, 02:49:04,VALID,918.328,VALID,0,VALID,92.7541,VALID,0,VALID,19.1359,VALID,131,VALID,1.00234,
2011-12-28, 02:50:04,VALID,918.298,VALID,0,VALID,92.9142,VALID,0,VALID,19.1373,VALID,131,VALID,0.786328,
2011-12-28, 02:51:04,VALID,918.269,VALID,0,VALID,93.059,VALID,0,VALID,19.0969,VALID,131,VALID,0.8625,
2011-12-28, 02:52:04,VALID,918.293,VALID,0,VALID,93.1505,VALID,0.107441,VALID,19.0774,VALID,131,VALID,1.06016,
2011-12-28, 02:53:04,VALID,918.267,VALID,0,VALID,93.2954,VALID,0,VALID,19.0788,VALID,131,VALID,0.846875,
2011-12-28, 02:54:04,VALID,918.246,VALID,0,VALID,93.425,VALID,0,VALID,19.0593,VALID,132,VALID,0.657812,
2011-12-28, 02:55:04,VALID,918.256,VALID,0,VALID,93.5851,VALID,0,VALID,19.0203,VALID,132,VALID,0.853516,
2011-12-28, 02:56:04,VALID,918.214,VALID,0,VALID,93.7375,VALID,0,VALID,19.0008,VALID,153,VALID,0.884766,
2011-12-28, 02:57:04,VALID,918.179,VALID,0,VALID,93.829,VALID,0.107441,VALID,18.9814,VALID,157,VALID,0.516406,
2011-12-28, 02:58:04,VALID,918.181,VALID,0,VALID,93.9129,VALID,0,VALID,18.9409,VALID,135,VALID,0.714453,
2011-12-28, 02:59:04,VALID,918.162,VALID,0,VALID,93.9586,VALID,0.107441,VALID,18.9619,VALID,135,VALID,0.789844,
2011-12-28, 03:00:04,VALID,918.143,VALID,0,VALID,94.0272,VALID,0,VALID,18.9214,VALID,135,VALID,0.859766,
2011-12-28, 03:01:04,VALID,918.12,VALID,0,VALID,94.0806,VALID,0,VALID,18.9214,VALID,135,VALID,1.27344,
2011-12-28, 03:02:04,VALID,918.101,VALID,0,VALID,94.1034,VALID,0,VALID,18.9424,VALID,135,VALID,1.39063,
2011-12-28, 03:03:04,VALID,918.094,VALID,0,VALID,94.1034,VALID,0,VALID,18.9229,VALID,135,VALID,1.57187,
2011-12-28, 03:04:04,VALID,918.113,VALID,0,VALID,94.0272,VALID,0,VALID,18.9409,VALID,135,VALID,1.15469,
2011-12-28, 03:05:04,VALID,918.074,VALID,0,VALID,93.9891,VALID,0.107441,VALID,18.9424,VALID,135,VALID,1.15234,
2011-12-28, 03:06:04,VALID,918.095,VALID,0,VALID,93.951,VALID,0,VALID,18.9424,VALID,135,VALID,1.02617,
2011-12-28, 03:07:04,VALID,918.055,VALID,0,VALID,93.9129,VALID,0,VALID,18.9424,VALID,135,VALID,1.07383,
2011-12-28, 03:08:04,VALID,918.061,VALID,0,VALID,93.89,VALID,0,VALID,18.9019,VALID,145,VALID,0.715234,
2011-12-28, 03:09:04,VALID,918.074,VALID,0,VALID,93.8671,VALID,0,VALID,18.9034,VALID,145,VALID,0.937109,
2011-12-28, 03:10:04,VALID,918.067,VALID,0,VALID,93.89,VALID,0.107441,VALID,18.8839,VALID,145,VALID,0.932422,
2011-12-28, 03:11:04,VALID,918.06,VALID,0,VALID,93.9281,VALID,0,VALID,18.9034,VALID,145,VALID,0.836719,
2011-12-28, 03:12:04,VALID,918.049,VALID,0,VALID,93.8976,VALID,0,VALID,18.9034,VALID,145,VALID,0.959375,
2011-12-28, 03:13:04,VALID,918.057,VALID,0,VALID,93.951,VALID,0,VALID,18.9048,VALID,145,VALID,0.894141,
2011-12-28, 03:14:04,VALID,918.069,VALID,0,VALID,94.0577,VALID,0.107441,VALID,18.8644,VALID,146,VALID,1.02695,
2011-12-28, 03:15:04,VALID,918.065,VALID,0,VALID,94.2254,VALID,0,VALID,18.8449,VALID,146,VALID,1.15742,
2011-12-28, 03:16:04,VALID,918.058,VALID,0,VALID,94.3779,VALID,0,VALID,18.8254,VALID,146,VALID,1.01992,
2011-12-28, 03:17:04,VALID,918.063,VALID,0,VALID,94.4922,VALID,0,VALID,18.8059,VALID,146,VALID,0.821484,
2011-12-28, 03:18:04,VALID,918.066,VALID,0,VALID,94.6371,VALID,0,VALID,18.8059,VALID,146,VALID,0.988281,
2011-12-28, 03:19:04,VALID,918.056,VALID,0,VALID,94.7972,VALID,0,VALID,18.8059,VALID,146,VALID,0.722266,
2011-12-28, 03:20:04,VALID,918.048,VALID,0,VALID,94.8582,VALID,0.107441,VALID,18.8059,VALID,146,VALID,0.668359,
2011-12-28, 03:21:04,VALID,918.029,VALID,0,VALID,94.9192,VALID,0.107441,VALID,18.7864,VALID,146,VALID,0.682422,
2011-12-28, 03:22:04,VALID,918.031,VALID,0,VALID,94.9649,VALID,0,VALID,18.7864,VALID,146,VALID,0.496484,
2011-12-28, 03:23:04,VALID,918.034,VALID,0,VALID,95.0259,VALID,0,VALID,18.8059,VALID,146,VALID,0.376563,
2011-12-28, 03:24:04,VALID,918.044,VALID,0,VALID,95.0106,VALID,0,VALID,18.7864,VALID,146,VALID,0.341406,
2011-12-28, 03:25:04,VALID,918.032,VALID,0,VALID,95.0335,VALID,0,VALID,18.7669,VALID,146,VALID,0.518359,
2011-12-28, 03:26:04,VALID,918.048,VALID,0,VALID,95.0945,VALID,0,VALID,18.7474,VALID,146,VALID,0.812109,
2011-12-28, 03:27:04,VALID,918.029,VALID,0,VALID,95.2622,VALID,0,VALID,18.7474,VALID,146,VALID,0.867578,
2011-12-28, 03:28:04,VALID,918.044,VALID,0,VALID,95.3689,VALID,0.107441,VALID,18.746,VALID,146,VALID,0.920313,
2011-12-28, 03:29:04,VALID,918.032,VALID,0,VALID,95.3689,VALID,0,VALID,18.7864,VALID,146,VALID,0.8125,
2011-12-28, 03:30:04,VALID,917.996,VALID,0,VALID,95.3232,VALID,0,VALID,18.7864,VALID,146,VALID,0.769922,
2011-12-28, 03:31:04,VALID,917.995,VALID,0,VALID,95.2393,VALID,0,VALID,18.7864,VALID,146,VALID,0.750391,
2011-12-28, 03:32:04,VALID,917.98,VALID,0,VALID,95.2622,VALID,0,VALID,18.7669,VALID,146,VALID,0.844531,
2011-12-28, 03:33:04,VALID,917.974,VALID,0,VALID,95.2393,VALID,0,VALID,18.7864,VALID,146,VALID,0.803125,
2011-12-28, 03:34:04,VALID,917.966,VALID,0,VALID,95.2012,VALID,0,VALID,18.7864,VALID,146,VALID,0.588672,
2011-12-28, 03:35:04,VALID,917.951,VALID,0,VALID,95.2393,VALID,0,VALID,18.7864,VALID,146,VALID,0.935938,
2011-12-28, 03:36:04,VALID,917.949,VALID,0,VALID,95.3003,VALID,0,VALID,18.785,VALID,146,VALID,0.875,
2011-12-28, 03:37:04,VALID,917.951,VALID,0,VALID,95.2851,VALID,0,VALID,18.7864,VALID,146,VALID,0.939453,
2011-12-28, 03:38:04,VALID,917.934,VALID,0,VALID,95.3156,VALID,0,VALID,18.8073,VALID,146,VALID,0.617969,
2011-12-28, 03:39:04,VALID,917.915,VALID,0,VALID,95.3079,VALID,0,VALID,18.7669,VALID,146,VALID,0.575781,
2011-12-28, 03:40:04,VALID,917.905,VALID,0,VALID,95.3079,VALID,0.107441,VALID,18.7669,VALID,146,VALID,0.516406,
2011-12-28, 03:41:04,VALID,917.877,VALID,0,VALID,95.3156,VALID,0,VALID,18.7864,VALID,146,VALID,0.474609,
2011-12-28, 03:42:04,VALID,917.862,VALID,0,VALID,95.3156,VALID,0,VALID,18.7655,VALID,146,VALID,0.533984,
2011-12-28, 03:43:04,VALID,917.834,VALID,0,VALID,95.3079,VALID,0,VALID,18.7669,VALID,146,VALID,0.730469,
2011-12-28, 03:44:04,VALID,917.822,VALID,0,VALID,95.2622,VALID,0,VALID,18.7669,VALID,146,VALID,0.457812,